Weather History for KOXI - September, 2013

Change the Weather History Date:

Monday, September 16, 2013

  Actual Average (KVPZ) Record (KVPZ)
Temperature  
Mean Temperature 58 °F 63 °F  
Max Temperature 96 °F 74 °F 82 °F (2003)
Min Temperature 47 °F 53 °F 38 °F (2011)
Degree Days  
Heating Degree Days 8 3  
Month to date heating degree days 31  
Since 1 July heating degree days 48  
Cooling Degree Days 0 2  
Month to date cooling degree days 49  
Year to date cooling degree days 685  
Growing Degree Days 8 (Base 50)    
Moisture  
Dew Point 50 °F    
Average Humidity 83    
Maximum Humidity 98    
Minimum Humidity 44    
Precipitation  
Precipitation 0.00 in 0.09 in 0.04 in (2004)
Month to date precipitation 1.81  
Year to date precipitation 27.35  
Sea Level Pressure  
Sea Level Pressure 30.27 in    
Wind  
Wind Speed 5 mph (NNE)    
Max Wind Speed 12 mph    
Max Gust Speed -    
Visibility 8 miles    
Events      
T = Trace of Precipitation, MM = Missing Value Source: NWS Daily Summary

Daily Weather History Graph

Daily Weather History Graph

Search for Another Location

Airport or City:

Trip Planner

Search our weather history database for the weather conditions in past years. The results will help you decide how hot, cold, wet, or windy it might be!

Date:

Astronomy

Sep. 16, 2013 Rise Set
Actual Time 6:28 AM CDT 6:53 PM CDT
Civil Twilight 6:00 AM CDT 7:21 PM CDT
Nautical Twilight 5:27 AM CDT 7:53 PM CDT
Astronomical Twilight 4:54 AM CDT 8:27 PM CDT
Moon 5:03 PM CDT (9/16) 3:12 AM CDT (9/16)
Length of Visible Light 13h 20m
Length of Day
12h 25m
Waxing Gibbous, 90% of the Moon is Illuminated
Sep 16
Waxing Gibbous
Sep 19
Full
Sep 26
Last Quarter
Oct 4
New
Oct 11
First Quarter

Hourly Weather History & Observations

Time (CDT) Temp. Dew Point Humidity Pressure Visibility Wind Dir Wind Speed Gust Speed Precip Events Conditions
12:15 AM 54.5 °F 53.6 °F 97% 30.14 in 3.0 mi NNE 4.6 mph - N/A   Overcast
12:35 AM 54.9 °F 54.1 °F 97% 30.15 in 4.0 mi NE 4.6 mph - N/A   Overcast
12:55 AM 54.7 °F 54.1 °F 98% 30.15 in 3.0 mi NE 4.6 mph - N/A   Overcast
1:15 AM 54.7 °F 54.0 °F 97% 30.16 in 3.0 mi NNE 5.8 mph - N/A   Overcast
1:35 AM 54.9 °F 54.1 °F 97% 30.17 in 4.0 mi NE 4.6 mph - N/A   Overcast
1:55 AM 54.7 °F 54.1 °F 98% 30.17 in 4.0 mi NE 4.6 mph - N/A   Mostly Cloudy
2:15 AM 53.8 °F 53.1 °F 97% 30.18 in 2.0 mi NNE 5.8 mph - N/A   Overcast
2:35 AM 52.9 °F 52.2 °F 97% 30.18 in 2.5 mi NNE 4.6 mph - N/A   Mostly Cloudy
2:55 AM 53.6 °F 52.9 °F 97% 30.18 in 3.0 mi NE 4.6 mph - N/A   Mostly Cloudy
3:15 AM 52.9 °F 52.2 °F 97% 30.18 in 3.0 mi NE 3.5 mph - N/A   Scattered Clouds
3:35 AM 52.0 °F 51.3 °F 97% 30.19 in 1.2 mi Calm Calm - N/A   Unknown
3:55 AM 50.0 °F 49.3 °F 97% 30.20 in 0.2 mi North 4.6 mph - N/A   Unknown
4:15 AM 48.6 °F 47.7 °F 97% 30.20 in 0.2 mi Calm Calm - N/A   Overcast
4:35 AM 48.7 °F 48.0 °F 97% 30.21 in 0.2 mi NNE 3.5 mph - N/A   Overcast
4:55 AM 49.3 °F 48.6 °F 97% 30.21 in 0.2 mi Calm Calm - N/A   Overcast
5:15 AM 48.7 °F 48.0 °F 97% 30.22 in 0.2 mi ENE 3.5 mph - N/A   Mostly Cloudy
5:35 AM 49.8 °F 49.1 °F 97% 30.23 in 4.0 mi NE 4.6 mph - N/A   Clear
5:55 AM 50.5 °F 49.8 °F 97% 30.23 in 5.0 mi NE 6.9 mph - N/A   Clear
6:15 AM 50.4 °F 49.6 °F 97% 30.24 in 4.0 mi North 3.5 mph - N/A   Clear
6:35 AM 48.2 °F 47.7 °F 98% 30.25 in 1.2 mi Calm Calm - N/A   Unknown
6:55 AM 48.2 °F 47.7 °F 98% 30.26 in 0.5 mi North 3.5 mph - N/A   Unknown
7:15 AM 48.2 °F 47.5 °F 97% 30.26 in 1.0 mi North 3.5 mph - N/A   Unknown
7:35 AM 50.4 °F 49.6 °F 97% 30.27 in 4.0 mi Calm Calm - N/A   Clear
7:55 AM 52.2 °F 51.4 °F 97% 30.28 in 7.0 mi NNE 4.6 mph - N/A   Clear
8:15 AM 53.1 °F 52.3 °F 97% 30.28 in 10.0 mi North 5.8 mph - N/A   Mostly Cloudy
8:35 AM 54.0 °F 53.4 °F 98% 30.29 in 10.0 mi NNE 6.9 mph - N/A   Overcast
8:55 AM 54.3 °F 53.8 °F 98% 30.30 in 10.0 mi NNE 6.9 mph - N/A   Overcast
9:15 AM 54.9 °F 54.3 °F 98% 30.31 in 10.0 mi NNE 6.9 mph - N/A   Overcast
9:35 AM 55.9 °F 54.9 °F 96% 30.32 in 10.0 mi NE 8.1 mph - N/A   Overcast
9:55 AM 57.2 °F 54.5 °F 91% 30.32 in 10.0 mi NNE 9.2 mph - N/A   Overcast
10:15 AM 57.7 °F 54.5 °F 89% 30.33 in 10.0 mi NNE 8.1 mph - N/A   Overcast
10:35 AM 58.5 °F 54.5 °F 87% 30.33 in 10.0 mi NNE 9.2 mph - N/A   Overcast
10:55 AM 58.8 °F 53.8 °F 83% 30.33 in 10.0 mi North 8.1 mph - N/A   Overcast
11:15 AM 59.2 °F 52.7 °F 79% 30.33 in 10.0 mi NNE 3.5 mph - N/A   Overcast
11:35 AM 59.9 °F 53.1 °F 78% 30.33 in 10.0 mi NNW 4.6 mph - N/A   Overcast
11:55 AM 60.6 °F 53.2 °F 77% 30.33 in 10.0 mi North 4.6 mph - N/A   Overcast
12:15 PM 61.2 °F 53.1 °F 75% 30.33 in 10.0 mi NNW 4.6 mph - N/A   Mostly Cloudy
12:35 PM 62.2 °F 52.0 °F 69% 30.33 in 10.0 mi NNW 4.6 mph - N/A   Mostly Cloudy
12:55 PM 63.1 °F 51.6 °F 66% 30.33 in 10.0 mi NNE 5.8 mph - N/A   Overcast
1:15 PM 63.9 °F 50.5 °F 62% 30.32 in 10.0 mi North 10.4 mph - N/A   Mostly Cloudy
1:35 PM 65.1 °F 49.8 °F 58% 30.32 in 10.0 mi Calm Calm - N/A   Mostly Cloudy
1:55 PM 65.8 °F 48.9 °F 54% 30.32 in 10.0 mi NNE 6.9 mph - N/A   Scattered Clouds
2:15 PM 66.6 °F 47.7 °F 51% 30.30 in 10.0 mi North 5.8 mph - N/A   Scattered Clouds
2:35 PM 67.8 °F 47.7 °F 48% 30.30 in 10.0 mi ENE 6.9 mph - N/A   Scattered Clouds
2:55 PM 67.1 °F 46.6 °F 48% 30.29 in 10.0 mi North 5.8 mph - N/A   Clear
3:15 PM 68.2 °F 46.8 °F 46% 30.28 in 10.0 mi North 9.2 mph - N/A   Scattered Clouds
3:35 PM 68.2 °F 46.8 °F 46% 30.28 in 10.0 mi NNW 8.1 mph - N/A   Scattered Clouds
3:55 PM 68.5 °F 46.0 °F 44% 30.28 in 10.0 mi NE 9.2 mph - N/A   Clear
4:15 PM 68.7 °F 46.0 °F 44% 30.28 in 10.0 mi NE 6.9 mph - N/A   Clear
4:35 PM 68.4 °F 45.3 °F 44% 30.28 in 10.0 mi Calm Calm - N/A   Clear
4:55 PM 68.0 °F 45.9 °F 45% 30.27 in 10.0 mi NNW 8.1 mph - N/A   Clear
5:15 PM 66.9 °F 48.9 °F 52% 30.28 in 10.0 mi North 10.4 mph - N/A   Clear
5:35 PM 64.9 °F 49.8 °F 58% 30.28 in 10.0 mi North 11.5 mph - N/A   Clear
5:55 PM 63.5 °F 49.3 °F 60% 30.28 in 10.0 mi North 11.5 mph - N/A   Clear
6:15 PM 61.7 °F 49.3 °F 64% 30.29 in 10.0 mi North 8.1 mph - N/A   Clear
6:35 PM 59.7 °F 49.3 °F 68% 30.29 in 10.0 mi North 6.9 mph - N/A   Clear
6:55 PM 57.2 °F 49.6 °F 76% 30.29 in 10.0 mi North 5.8 mph - N/A   Clear
7:15 PM 54.9 °F 50.5 °F 85% 30.29 in 10.0 mi North 6.9 mph - N/A   Clear
7:35 PM 53.8 °F 50.0 °F 87% 30.29 in 10.0 mi North 4.6 mph - N/A   Clear
7:55 PM 51.4 °F 48.9 °F 91% 30.29 in 10.0 mi North 5.8 mph - N/A   Clear
8:15 PM 50.7 °F 48.7 °F 93% 30.30 in 10.0 mi NNE 3.5 mph - N/A   Clear
8:35 PM 50.0 °F 48.2 °F 94% 30.30 in 10.0 mi NNE 3.5 mph - N/A   Clear
8:55 PM 48.9 °F 47.7 °F 95% 30.31 in 10.0 mi NNE 3.5 mph - N/A   Clear
9:15 PM 48.7 °F 47.7 °F 96% 30.31 in 10.0 mi NNE 3.5 mph - N/A   Clear
9:35 PM 48.9 °F 47.8 °F 96% 30.31 in 10.0 mi NE 4.6 mph - N/A   Clear
9:55 PM 48.9 °F 47.5 °F 95% 30.32 in 10.0 mi NNE 3.5 mph - N/A   Clear
10:15 PM 47.1 °F 45.9 °F 95% 30.32 in 10.0 mi NE 4.6 mph - N/A   Clear
10:35 PM 48.2 °F 46.6 °F 94% 30.33 in 10.0 mi ENE 4.6 mph - N/A   Clear
10:55 PM 48.6 °F 46.8 °F 93% 30.33 in 10.0 mi ENE 4.6 mph - N/A   Clear
11:15 PM 48.2 °F 46.2 °F 93% 30.33 in 10.0 mi East 3.5 mph - N/A   Clear
11:35 PM 47.8 °F 45.7 °F 92% 30.33 in 10.0 mi ENE 3.5 mph - N/A   Clear
11:55 PM 47.7 °F 45.5 °F 92% 30.33 in 10.0 mi ENE 3.5 mph - N/A   Clear